Location: York
(31.8935°S, 116.7682°E)
Time: 15:29:28
(UTC+08:00)

Tiros 1 - Visible Passes

Search period start: 25 September 2022 00:00
Search period end: 05 October 2022 00:00
Orbit: 629 x 663 km, 48.4° (Epoch: 24 September)

Date Brightness Start Highest point End Pass type
(mag) Time Alt. Az. Time Alt. Az. Time Alt. Az.
25 Sep 9.3 18:44:32 10° SSW 18:47:20 15° SSE 18:50:09 10° SE visible
25 Sep 8.4 20:25:42 10° SW 20:28:48 36° SSW 20:28:48 36° SSW visible
26 Sep 8.6 19:09:38 10° SSW 19:13:32 24° SSE 19:15:53 17° ESE visible
26 Sep 9.1 20:51:17 10° SW 20:53:32 27° WSW 20:53:32 27° WSW visible
27 Sep 7.6 19:34:52 10° SW 19:39:29 46° SE 19:40:40 38° ESE visible
27 Sep 10.0 21:17:27 10° WSW 21:18:19 14° W 21:18:19 14° W visible
28 Sep 7.1 20:00:24 10° SW 20:05:12 77° NW 20:05:32 72° N visible
29 Sep 7.8 18:44:03 10° SW 18:48:36 42° SE 18:52:50 12° ENE visible
29 Sep 8.6 20:26:29 10° WSW 20:30:30 30° NW 20:30:30 30° NW visible
30 Sep 7.2 19:09:32 10° SW 19:14:19 86° NW 19:17:54 18° NE visible
30 Sep 9.9 20:54:23 10° WNW 20:55:35 11° WNW 20:55:35 11° WNW visible
01 Oct 8.5 19:35:31 10° WSW 19:39:48 34° NW 19:43:06 15° N visible
02 Oct 9.8 20:02:55 10° W 20:05:07 13° NW 20:07:17 10° NNW visible
03 Oct 8.5 18:44:34 10° WSW 18:48:57 38° NW 18:53:21 10° NNE visible
04 Oct 9.8 19:11:39 10° W 19:14:17 15° NW 19:16:54 10° NNW visible
